Regional Weather Roundup
Issued by NWS Newport/Morehead, NC

Current Version | Previous Version | Text Only | Print | Product List | Glossary Off
Versions: 1 2 3 4 5 6 7 8 9 10 11 12 13 14 15 16 17 18 19 20 21 22 23 24 25 26 27 28 29 30 31 32 33 34 35 36 37 38 39 40 41 42 43 44 45 46 47 48 49 50
000 ASUS42 KMHX 270625 RWRMHX WEATHER ROUNDUP FOR EASTERN NORTH CAROLINA NATIONAL WEATHER SERVICE NEWPORT/MOREHEAD CITY NC 200 AM EDT SAT MAY 27 2017 NOTE: "FAIR" INDICATES FEW OR NO CLOUDS BELOW 12,000 FEET WITH NO SIGNIFICANT WEATHER AND/OR OBSTRUCTIONS TO VISIBILITY NCZ015>017-031-032-045>047-102-103-270700- NORTH COAST CITY SKY/WX TMP DP RH WIND PRES REMARKS EDENTON CLEAR 68 63 85 CALM 29.95S ELIZABETH CITY CLEAR 64 61 90 SW6 29.93F KITTY HAWK CLEAR 69 61 76 CALM 29.93S MANTEO CLEAR 69 62 78 W3 29.94F $$ NCZ045>047-081-094-103-104-270700- CENTRAL COAST CITY SKY/WX TMP DP RH WIND PRES REMARKS FRISCO CLEAR 72 68 87 SW6 29.95F $$ NCZ095-097-098-100-101-270700- SOUTHERN COAST CITY SKY/WX TMP DP RH WIND PRES REMARKS BEAUFORT CLEAR 72 70 93 SW6 29.97S CEDAR ISLAND NOT AVBL JACKSONVILLE CLEAR 65 63 93 CALM 29.96F PINEY ISLAND CLEAR N/A N/A N/A SW6 29.96S WILMINGTON CLEAR 68 63 84 CALM 29.98S $$ NCZ011>013-027>030-043-044-078>080-089-090>093-098-270700- COASTAL PLAIN CITY SKY/WX TMP DP RH WIND PRES REMARKS AHOSKIE NOT AVBL CLINTON CLEAR 63 59 88 CALM 29.98S ELIZABETHTOWN PTCLDY 66 59 77 CALM 29.98S GOLDSBORO NOT AVBL GREENVILLE CLEAR 63 61 94 CALM 29.97S HAVELOCK CLEAR 65 61 87 CALM 29.97F KENANSVILLE CLEAR 59 57 94 CALM 29.97S KINSTON CLEAR 60 58 94 CALM 29.97S NEW BERN CLEAR 62 60 93 CALM 29.97F RICHLANDS CLEAR 63 59 87 S3 29.98S ROCKY MOUNT CLEAR 62 60 93 S3 29.95S WASHINGTON CLEAR 65 59 83 CALM 29.95F WHITEVILLE CLEAR 64 59 82 CALM 29.98S $$ AMZ130-135-150-152-154-156-158-170-250-252-270-ANZ085-086-088-633-658-670-270700- MARINE OBSERVATIONS STATION/POSITION TIME TEMP WIND PRES WAVE SWELL AIR SEA DIR/SP/G HT/PER HT/PER (UTC) (F) (DEG/KT/KT) (MB) (FT/S) (FT/S) CHESAPEAKE LIGHT NOT AVBL 64 E VA BEACH 0550 66 62 270/ 4/ 4 1013.9 3/ 7 3/ 7 DUCK 0600 71 63 240/ 7/ 9 1013.0 2 E DUCK 0600 63 N/A 1/ 8 OREGON INLET 0600 70 70 220/ 5/ 5 1013.6 13E OREGON INLT 0548 67 N/A 2/ 7 2/ 7 HATTERAS CG 0600 71 73 230/ 5/ 7 1014.1 DIAMOND BUOY 0550 75 78 260/ 12/ 14 1014.2 5/ 7 3/ 7 CAPE LOOKOUT 0600 72 250/ 6/ 7 1014.5 BEAUFORT LAB 0600 72 71 240/ 3/ 5 1014.0 30 SE NEW RVR IN 0608 76 78 260/ 12/ 16 1015.0 30 SE NEW RVR IN 0613 78 N/A 4/ 6 27 SE WRIGHTSVLE 0608 74 76 250/ 12/ 17 1014.1 5 SE WRIGHTSVLE 0608 74 74 250/ 8/ 12 1015.0 225 S CAPE HAT 0550 76 77 250/ 12/ 14 1016.8 5/ 6 3/ 6 41 SE CHARLESTON 0610 74 74 230/ 14/ 16 1016.0 $$

USA.gov is the U.S. government's official web portal to all federal, state and local government web resources and services.